Voltar ao catálogo

STARLINK-34930

AtivoComunicaçõesVLEO
NORAD 65688·PAYLOAD·🇺🇸 United States

Lançado Sep 21, 2025 de Cape Canaveral Space Force Station

Loading…

Próximas Passagens (próximas 24 horas)

TLE

AtualizadoSource: CelesTrak SupGP

Época: Sep 14, 2026, 23:14 UTC

1 65688C 25212N   26257.96854167 -.00038312  00000+0 -12317-2 0  2574
2 65688  53.1588 185.3676 0001198  76.5196 110.6590 15.31729913    18

Acompanhe STARLINK-34930 em tempo real com AllMySat

Download on the App Store